Flag for Switzerland Weather past 2 weeks in Wädenswil, Zurich, Switzerland

Now
40 °F

Quite cool.


Feels Like: 33 °F
Forecast: 36 / 44 °F
Wind: 12 mph from West

Location: Zurich Town / Ville.

Current Time: Apr 1, 2015 at 7:05:00 AM

Latest Report: Apr 1, 2015 at 6:00 AM


Visibility: N/A

Pressure: 30.13 "Hg

Humidity: 69%

Dew point: 31 °F

Location of WädenswilLocation

Historic Weather in Wädenswil — Graph

°F

Wädenswil temperature yesterday

Maximum temperature yesterday: 58 °F (at 10:00 AM)
Minimum temperature yesterday: 46 °F (at 2:00 AM)
Average temperature yesterday: 51 °F

Past Weeks' High & Low Weather Summary

 TemperatureHumidityPressure
High62 °F (Mar 18, 2:40 PM)97% (Mar 22, 1:00 AM)30.31 "Hg (Mar 22, 1:00 AM)
Low35 °F (Mar 22, 5:00 AM)34% (Mar 24, 5:00 PM)29.59 "Hg (Mar 25, 2:00 PM)
Average47 °F70%30.01 "Hg
* Reported Mar 17 3:00 AM — Apr 1 4:00 AM, Wädenswil, Weather by CustomWeather, © 2015

Note: Actual official high and low records may vary slightly from our data, if they occured in-between our weather recording intervals... More about our weather records

Advertising

Wädenswil weather history for previous 24 hours

 ConditionsComfort  
Time TempWeatherWind HumidityBarometerVisibility
4:00 AM
Wed, Apr 1
40 °FChilly.9 mph82%30.12 "HgN/A
3:00 AM39 °FChilly.18 mph81%30.14 "HgN/A
2:00 AM45 °FQuite cool.20 mph58%30.08 "HgN/A
1:00 AM46 °FCool.20 mph54%30.06 "HgN/A
12:00 AM47 °FCool.23 mph51%30.05 "HgN/A
11:00 PM
Tue, Mar 31
47 °FCool.18 mph53%30.03 "HgN/A
10:00 PM47 °FCool.16 mph59%30.02 "HgN/A
9:00 PM47 °FCool.17 mph63%30.01 "HgN/A
8:00 PM49 °FCool.15 mph63%29.98 "HgN/A
7:00 PM50 °FCool.20 mph65%29.94 "HgN/A
6:00 PM49 °FCool.18 mph73%29.90 "HgN/A
5:00 PM48 °FCool.23 mph90%29.88 "HgN/A
4:00 PM53 °FCool.25 mph61%29.85 "HgN/A
3:00 PM55 °FCool.35 mph57%29.83 "HgN/A
2:00 PM54 °FOvercast.31 mph65%29.84 "HgN/A
1:00 PM56 °FRefreshingly cool.31 mph58%29.82 "HgN/A
12:00 PM57 °FRefreshingly cool.35 mph55%29.80 "HgN/A
11:00 AM57 °FRefreshingly cool.31 mph52%29.79 "HgN/A
10:00 AM58 °FRefreshingly cool.26 mph54%29.77 "HgN/A
9:00 AM55 °FCool.26 mph63%29.82 "HgN/A
8:00 AM53 °FCool.21 mph73%29.83 "HgN/A
7:00 AM54 °FCool.20 mph70%29.81 "HgN/A
Weather by CustomWeather, © 2015

See weather overviewHow to use our weather pages